Regional Weather Roundup
Issued by NWS Burlington, VT

Home | Current Version | Previous Version | Text Only | Print | Product List | Glossary On
Versions: 1 2 3 4 5 6 7 8 9 10 11 12 13 14 15 16 17 18 19 20 21 22 23 24 25 26 27 28 29 30 31 32 33 34 35 36 37 38 39 40 41 42 43 44 45 46 47 48 49 50
254
ASUS41 KBTV 282210
RWRBTV
VERMONT REGIONAL WEATHER ROUNDUP
NATIONAL WEATHER SERVICE BURLINGTON VT
600 PM EDT FRI APR 28 2017

NOTE: "FAIR" INDICATES FEW OR NO CLOUDS BELOW 12,000 FEET WITH NO
SIGNIFICANT WEATHER AND/OR OBSTRUCTIONS TO VISIBILITY.

* THESE REPORTS ARE NOT UNDER NWS QUALITY CONTROL AND/OR DO NOT
  REPORT WEATHER SUCH AS PRECIPITATION AND FOG.

VTZ001>019-282300-
_____VERMONT_____


CITY           SKY/WX    TMP DP  RH WIND       PRES   REMARKS
BURLINGTON     MOSUNNY   79  34  19 W9        29.90R
MONTPELIER     SUNNY     75  37  25 SW10      29.96S
MORRISVILLE    SUNNY     76  33  21 VRB3      29.91F
ST. JOHNSBURY*   N/A     77  37  23 MISG      29.88F
LYNDONVILLE*   FAIR      75  38  25 S12G18    29.93S
RUTLAND*       MOSUNNY   75  38  26 S7        29.96S
SPRINGFIELD    SUNNY     76  34  21 SW8       29.95R
HIGHGATE*      FAIR      71  47  43 N9        29.91R
NEWPORT*       FAIR      73  38  28 SW14      29.92S
BENNINGTON     MOSUNNY   76  44  32 VRB3      29.97F
SUTTON*          N/A     75 N/A N/A MISG        N/A

_____LAKE CHAMPLAIN_____


CITY           SKY/WX    TMP DP  RH WIND       PRES   REMARKS
BURTON ISLAND*   N/A     70  37  30 NW2         N/A
COLCHESTER RF*   N/A     73  39  29 N6          N/A
DIAMOND ISL*     N/A     79  27  14 SW17        N/A

$$

NYZ007-026>031-035-052-083-087-282300-
_____NORTHERN NEW YORK_____


CITY           SKY/WX    TMP DP  RH WIND       PRES   REMARKS
PLATTSBURGH    MOSUNNY   78  25  14 W10G22    29.90R
SARANAC LAKE   SUNNY     69  29  22 W12G20    29.96S
MASSENA        SUNNY     66  41  40 SW15G25   29.95F
OGDENSBURG*    FAIR      65  45  48 SW14G24   29.97F
POTSDAM*       SUNNY     64  43  45 W21G26    29.97F
WATERTOWN      SUNNY     60  45  57 W6        30.00F
FT DRUM        SUNNY     61  44  53 SW5       29.99S
ALBANY         PTSUNNY   77  50  38 N8        29.96S
GLENS FALLS    MOSUNNY   77  33  20 SW14      29.96R

$$
NHZ002-005-011-282300-
_____NEW HAMPSHIRE_____


CITY           SKY/WX    TMP DP  RH WIND       PRES   REMARKS
LEBANON        SUNNY     79  37  22 W9        29.92R
KEENE          MOSUNNY   79  35  20 NW9       29.95
MT WASHINGTON  MOSUNNY   46  39  76 W40         N/A
PLYMOUTH       FAIR      78  42  27 SW5       29.90S
WHITEFIELD     SUNNY     76  42  29 VRB7      29.91S

$$

_____REGIONAL QUEBEC LOCATIONS_____


CITY           SKY/WX    TMP DP  RH WIND       PRES   REMARKS
MONTREAL       MOSUNNY   68  41  37 SW25      29.91R
QUEBEC CITY    PTSUNNY   68  48  49 SW21      29.85R
SHERBROOKE     SUNNY     73  41  31 W10G17    29.89S

_____REGIONAL ONTARIO LOCATIONS_____


CITY           SKY/WX    TMP DP  RH WIND       PRES   REMARKS
OTTAWA         MOSUNNY   64  43  45 S15G26    29.92S

______KEY______
VSB  - VISIBILITY IN MILES
WCI  - WIND CHILL INDEX
HX   - HEAT INDEX
$$
NNNN




USA.gov is the U.S. government's official web portal to all federal, state and local government web resources and services.